Location: Abbey Hill
(34.0751°N, 84.0688°W)
Time: 01:35:16
(UTC+00:00)

X-37B - Pass Details

Date: 27 September 2021
Orbit: 385 x 389 km, 45.0° (Epoch: 13 October)

Event Time Altitude Azimuth Distance (km) Brightness Sun altitude
Exits shadow 09:30:59 12° 13° (NNE) 1,308 3.6 -24.8°
Drops below altitude 10° 09:31:32 10° 22° (NNE) 1,413 3.9 -24.7°
Sets 09:34:23 0° 50° (NE) 2,269 5.5 -24.1°
